Vorticity
20 21 18 16 17 19 19 18 20 15 9 13 7 6 8 1 0 9 14 13 9 7 7 8 5 0 9 -10 2 6 19 10 1 4 14 11 8 3 7 -6 15 -7 3 -6
14 11 10 10 9 11 12 11 17 21 13 19 17 17 14 12 20 18 11 10 -7 -1 15 19 11 5 6 11 10 6 -1 8 14 13 24 19 14 16 16 23 6 11 -5 -1
9 9 7 8 8 8 10 18 20 15 23 23 14 9 20 18 13 10 22 17 22 26 20 12 -15 7 -1 -5 -5 1 10 13 -11 -31 -16 -5 -7 4 10 13 7 -0 -26 -10
9 9 7 9 11 10 11 13 8 -0 -15 -6 -6 9 -7 2 4 -8 -17 -5 -6 -1 17 11 11 19 22 7 17 22 22 -2 9 9 14 11 -2 9 21 11 8 -17 -12 11
9 10 10 11 10 11 13 10 9 7 5 13 14 18 16 17 15 -4 1 -3 3 -7 5 13 4 -1 -6 1 4 8 7 2 10 7 4 20 15 11 4 3 15 13 24 13
10 9 11 11 11 11 10 8 11 8 4 5 11 18 13 10 13 22 17 3 7 17 5 4 6 10 18 3 -7 -7 6 7 5 9 27 12 37 20 53 34 0 10 23 29
7 8 8 7 7 8 8 9 10 10 6 6 12 8 11 12 14 8 12 22 -11 -3 -10 5 -1 7 4 11 20 19 1 3 14 4 14 23 9 20 8 -6 9 10 -1 18
6 6 7 8 8 8 9 10 10 10 5 5 5 16 19 18 9 11 18 27 31 14 -6 8 24 31 17 2 -1 -0 6 12 -6 -11 12 -31 -25 -8 -16 -2 17 2 8 12
6 6 7 7 9 10 9 13 12 10 4 14 -2 -5 1 -4 -0 18 39 40 21 10 61 12 3 -17 7 28 34 57 26 15 1 -0 -2 -7 20 31 27 14 -4 22 29 11
6 6 7 8 9 10 10 14 20 15 2 13 27 25 20 7 -3 -7 5 12 20 31 -1 34 16 6 1 11 -26 -50 16 47 2 9 -23 28 12 -20 18 -7 -19 21 9 22
7 7 7 7 8 10 11 8 20 13 2 3 14 17 -1 8 16 23 -7 -5 26 53 27 35 50 38 25 42 14 2 8 -1 7 41 2 30 1 16 -11 -10 3 14 6 3
7 7 8 7 9 18 12 1 13 12 13 -21 1 -3 -22 -8 -8 -15 -26 -24 -9 -13 -24 -39 -24 -91 11 -5 32 32 23 -0 -32 -15 -30 1 -33 0 29 19 5 7 8 -6
8 8 8 10 17 10 11 7 7 9 11 15 36 19 21 29 35 27 44 28 22 11 13 1 19 7 -15 -32 -12 54 2 52 37 9 7 -7 -5 -3 -10 8 18 12 5 1
8 10 15 17 8 6 5 7 10 7 8 8 23 35 12 13 25 42 45 12 8 3 23 18 14 13 0 -17 -8 -9 -49 -56 -10 47 28 12 -3 14 24 16 11 10 1 -0
11 14 14 9 7 8 11 7 8 14 18 -18 11 20 26 36 50 51 39 23 -8 17 7 1 6 12 12 6 19 18 -11 20 -26 8 -0 37 20 10 4 6 24 17 1 6
15 9 9 10 9 11 10 6 9 7 10 13 6 10 3 5 14 22 21 18 28 5 -14 28 -1 18 14 11 -11 19 22 19 20 9 -11 -14 30 25 23 19 34 5 3 2
10 14 16 14 13 10 10 6 18 19 14 11 0 64 49 7 13 17 10 18 16 24 10 6 15 3 -12 -2 -13 -1 -1 13 35 16 5 10 3 4 10 18 33 7 4 0
10 9 11 12 14 18 10 27 18 -3 19 16 19 -14 0 21 2 11 20 18 24 -7 1 10 8 13 18 13 -5 17 9 14 0 11 27 -18 27 -3 5 11 11 28 2 1
10 9 13 12 15 17 22 -2 0 -2 16 8 -4 14 18 54 7 13 17 32 19 9 -1 16 48 36 7 -9 21 15 6 3 17 29 2 20 20 -9 11 12 18 15 11 4
12 11 14 7 18 3 12 13 21 82 73 53 11 31 12 27 12 -15 1 25 67 13 23 56 21 0 -6 10 16 25 26 26 26 17 24 2 -3 20 14 -8 14 18 20 5
10 10 10 10 3 26 46 81 20 24 14 20 25 23 -11 53 54 47 42 -1 23 27 32 4 3 -26 15 13 10 26 23 26 17 11 23 34 9 1 20 15 28 18 13 3
10 8 10 7 44 55 20 9 25 7 -22 -14 -14 6 11 15 18 57 37 15 24 2 24 24 22 -9 20 19 16 7 -1 48 27 27 33 10 4 19 4 4 31 -5 -2 22
12 11 44 24 25 -5 6 13 7 -31 -8 -5 10 15 17 34 57 23 10 15 12 18 19 -4 -18 19 8 19 26 -2 1 44 36 19 32 -4 -0 9 30 3 -4 23 11 42
14 35 22 -1 6 -12 -18 6 -16 -9 -1 5 8 19 19 15 42 19 8 17 4 5 -22 -30 5 -14 13 27 22 11 57 16 50 48 21 1 -1 10 15 2 24 32 46 1
12 30 10 -11 -7 2 8 7 -6 -7 8 14 28 31 29 38 9 24 7 13 13 7 11 19 15 -6 -23 21 49 6 51 19 33 27 12 7 3 10 22 47 42 20 18 14
27 15 -11 7 6 6 6 9 16 14 19 34 34 26 22 23 9 17 6 9 9 -4 -2 -1 11 18 21 20 40 20 50 30 5 14 6 16 61 55 35 1 15 4 5 14
15 9 36 12 -4 4 14 18 23 46 34 21 39 14 3 15 12 12 10 6 2 14 15 12 25 22 22 37 40 58 53 43 48 60 57 34 13 9 10 3 13 10 6 5
Height
3118 3116 3113 3110 3108 3108 3104 3102 3102 3100 3099 3102 3098 3098 3099 3098 3096 3097 3096 3093 3092 3090 3089 3086 3085 3082 3080 3079 3077 3074 3074 3070 3063 3061 3059 3059 3060 3060 3059 3059 3055 3052 3049 3038
3112 3110 3107 3105 3102 3099 3099 3097 3095 3093 3093 3092 3092 3092 3089 3089 3090 3089 3088 3087 3087 3086 3083 3082 3080 3078 3077 3075 3074 3072 3070 3067 3064 3057 3057 3055 3053 3054 3055 3054 3051 3046 3049 3037
3107 3104 3102 3099 3096 3094 3093 3091 3090 3088 3087 3086 3084 3082 3084 3082 3084 3083 3083 3082 3081 3078 3077 3077 3074 3073 3073 3072 3070 3069 3067 3063 3060 3057 3054 3051 3049 3048 3048 3048 3046 3040 3035 3032
3102 3099 3096 3094 3090 3088 3088 3085 3083 3082 3083 3085 3082 3081 3078 3079 3080 3079 3077 3076 3077 3076 3072 3071 3067 3068 3066 3066 3065 3063 3062 3056 3055 3051 3050 3048 3043 3040 3040 3038 3036 3036 3027 3028
3097 3094 3090 3087 3087 3083 3081 3081 3079 3077 3076 3076 3075 3076 3073 3073 3072 3071 3071 3069 3066 3066 3066 3068 3063 3063 3061 3058 3058 3058 3056 3051 3048 3044 3044 3042 3036 3035 3032 3030 3029 3025 3023 3017
3091 3088 3085 3082 3079 3079 3077 3073 3071 3068 3065 3064 3065 3065 3064 3063 3064 3062 3064 3061 3058 3058 3059 3055 3053 3052 3051 3051 3050 3050 3050 3048 3045 3040 3039 3036 3031 3025 3022 3022 3021 3019 3016 3014
3086 3083 3081 3078 3074 3071 3070 3067 3065 3062 3057 3057 3057 3055 3056 3054 3056 3049 3048 3056 3052 3050 3050 3045 3043 3041 3039 3040 3038 3041 3040 3043 3042 3037 3038 3033 3021 3020 3019 3017 3016 3013 3012 3010
3081 3078 3075 3072 3071 3067 3065 3063 3060 3055 3048 3047 3045 3045 3042 3042 3041 3041 3038 3042 3042 3039 3039 3037 3033 3031 3029 3026 3031 3031 3031 3032 3035 3032 3028 3020 3016 3015 3014 3013 3012 3010 3008 3007
3076 3072 3069 3067 3065 3063 3059 3060 3055 3051 3045 3037 3038 3036 3035 3031 3028 3026 3026 3029 3032 3032 3029 3028 3022 3020 3018 3017 3015 3016 3020 3022 3024 3023 3021 3014 3010 3008 3008 3008 3006 3005 3004 3004
3069 3066 3064 3062 3060 3057 3051 3052 3049 3044 3038 3032 3032 3030 3028 3026 3024 3019 3017 3016 3018 3025 3020 3016 3014 3009 3011 3008 3009 3012 3010 3010 3009 3011 3011 3000 3005 3006 3005 3005 3003 3001 3002 3002
3062 3059 3056 3053 3050 3048 3043 3042 3042 3038 3030 3018 3022 3024 3019 3016 3014 3011 3011 3011 3011 3010 3008 3004 2998 2995 2997 2994 2992 2995 3001 3003 2999 3003 3005 2994 2998 2997 2999 2996 2996 2997 2997 2998
3054 3050 3047 3045 3043 3039 3036 3031 3033 3030 3022 3010 3010 3008 3008 3006 3003 3004 3004 3004 3006 3005 3004 2998 2990 2983 2986 2983 2978 2985 2985 2986 2990 2989 2981 2987 2989 2990 2992 2992 2992 2992 2993 2994
3046 3043 3040 3036 3031 3029 3027 3022 3021 3017 3007 2997 2994 2991 2996 2995 2994 2998 2991 2990 2994 2994 2999 2993 2987 2983 2980 2976 2971 2972 2975 2980 2977 2981 2975 2978 2983 2986 2988 2989 2988 2988 2989 2989
3036 3033 3028 3024 3021 3019 3016 3012 3012 3007 2997 2985 2974 2982 2978 2982 2982 2983 2982 2980 2984 2985 2986 2982 2976 2972 2972 2966 2966 2964 2966 2968 2968 2967 2970 2973 2975 2979 2980 2981 2981 2982 2982 2983
3026 3021 3017 3015 3012 3009 3005 3000 2998 2996 2992 2976 2965 2963 2965 2965 2966 2969 2970 2970 2970 2972 2971 2966 2961 2961 2963 2955 2957 2945 2954 2958 2959 2953 2959 2964 2968 2972 2972 2974 2975 2976 2977 2977
3015 3011 3008 3005 3002 2998 2993 2983 2986 2985 2981 2967 2953 2942 2944 2951 2953 2952 2954 2953 2955 2958 2954 2950 2950 2950 2954 2945 2938 2936 2941 2945 2949 2949 2949 2950 2956 2961 2961 2963 2965 2968 2970 2971
3005 3002 2998 2994 2991 2988 2984 2976 2977 2974 2970 2961 2945 2929 2927 2934 2938 2938 2938 2942 2940 2943 2941 2936 2935 2940 2943 2936 2927 2927 2931 2932 2936 2940 2942 2941 2944 2949 2954 2956 2958 2961 2963 2965
2996 2991 2987 2982 2979 2976 2968 2967 2964 2963 2959 2952 2937 2922 2919 2925 2924 2924 2925 2926 2928 2927 2923 2923 2920 2923 2926 2919 2913 2909 2914 2920 2923 2926 2932 2931 2937 2938 2944 2949 2951 2953 2956 2958
2985 2980 2975 2970 2969 2962 2955 2951 2949 2948 2948 2935 2927 2917 2909 2908 2910 2913 2912 2912 2911 2909 2905 2899 2912 2907 2897 2887 2887 2891 2898 2903 2910 2916 2921 2922 2924 2929 2933 2940 2943 2948 2951 2951
2975 2970 2965 2959 2958 2951 2945 2936 2931 2920 2918 2916 2908 2916 2904 2912 2909 2907 2906 2902 2899 2893 2888 2892 2887 2878 2873 2876 2881 2883 2886 2891 2896 2900 2905 2911 2913 2917 2924 2931 2935 2939 2939 2943
2966 2960 2956 2954 2948 2938 2929 2921 2917 2915 2912 2910 2907 2906 2903 2902 2898 2893 2895 2890 2888 2883 2880 2881 2871 2858 2862 2873 2873 2873 2876 2880 2882 2887 2894 2902 2908 2914 2916 2922 2926 2928 2932 2936
2959 2954 2948 2943 2938 2929 2924 2918 2913 2910 2906 2905 2902 2899 2896 2892 2891 2888 2883 2879 2879 2874 2874 2870 2856 2858 2863 2864 2861 2859 2861 2863 2866 2873 2881 2889 2896 2903 2907 2913 2916 2921 2925 2928
2952 2948 2942 2939 2935 2928 2922 2915 2911 2907 2903 2899 2895 2892 2889 2887 2885 2882 2879 2875 2871 2870 2867 2860 2852 2855 2856 2854 2851 2849 2847 2845 2849 2857 2867 2876 2885 2893 2898 2904 2909 2913 2916 2920
2946 2941 2937 2934 2928 2923 2918 2914 2909 2906 2901 2897 2893 2889 2886 2882 2881 2877 2872 2871 2869 2864 2859 2853 2853 2852 2848 2844 2840 2834 2830 2831 2834 2842 2855 2864 2874 2884 2890 2896 2901 2905 2907 2913
2940 2937 2929 2923 2921 2916 2913 2908 2903 2901 2898 2894 2887 2882 2879 2876 2874 2870 2869 2867 2863 2857 2853 2851 2848 2843 2838 2832 2826 2825 2824 2825 2829 2838 2846 2856 2868 2876 2883 2888 2894 2899 2904 2913
2931 2925 2920 2915 2911 2907 2904 2900 2895 2893 2889 2884 2882 2877 2873 2870 2868 2866 2865 2864 2859 2856 2851 2847 2842 2837 2831 2827 2821 2819 2817 2818 2827 2836 2843 2852 2861 2867 2873 2882 2891 2898 2906 2911
2921 2916 2913 2909 2904 2898 2892 2889 2884 2881 2878 2877 2876 2875 2871 2868 2865 2865 2864 2863 2859 2854 2850 2846 2840 2836 2831 2827 2825 2825 2825 2827 2833 2839 2848 2854 2861 2867 2874 2884 2892 2900 2907 2912